Lapse_Rate
6.1 5.8 5.7 6.2 6.6 6.6 6.1 5.8 5.8 5.9 6.2 6.1 6.0 5.7 5.9 6.4 5.6 5.7 6.3 6.1 5.7 5.8 5.9 5.2 5.8 6.2 6.1 6.2 6.2 6.5 6.5 6.4 6.2 6.2 6.3 6.5 6.5 6.5 6.5 6.3 6.2 6.2 6.3 6.0
6.2 6.0 6.3 6.4 6.2 5.9 5.8 5.5 5.4 5.7 5.8 5.8 5.9 5.8 5.8 5.9 5.7 5.6 5.7 5.5 5.6 5.6 5.7 5.8 5.9 6.4 6.1 6.0 6.2 6.4 6.4 6.3 6.1 6.1 6.3 6.4 6.4 6.4 6.5 6.5 6.5 6.3 6.3 6.1
6.8 6.2 6.3 6.0 6.0 5.7 5.6 5.4 5.5 5.8 6.0 5.8 5.3 5.2 5.7 5.8 5.7 5.4 5.3 5.7 5.8 5.9 6.2 5.9 5.9 6.2 6.2 6.3 6.3 6.3 6.3 6.2 6.0 6.2 6.3 6.2 6.2 6.2 6.3 6.5 6.5 6.4 6.4 6.2
6.0 6.0 5.7 6.2 5.7 5.8 5.6 6.0 6.0 5.8 5.5 5.0 5.6 4.3 4.8 5.1 5.4 5.4 5.2 5.9 6.7 6.9 6.5 6.2 6.4 6.7 6.7 6.4 6.2 6.3 6.3 6.1 6.1 6.2 6.2 6.2 6.2 6.3 6.3 6.2 6.2 6.1 6.1 6.2
5.7 6.6 5.9 6.2 6.6 6.1 5.6 5.8 5.7 5.5 5.4 5.4 4.9 4.4 3.6 4.8 5.2 6.0 6.6 6.4 6.4 6.6 6.7 6.5 6.5 6.3 6.3 6.3 6.2 6.2 6.1 6.0 6.0 6.0 6.1 6.2 6.2 6.1 6.1 6.0 5.9 5.8 5.8 5.8
5.9 6.0 5.8 5.8 6.4 6.6 6.3 5.9 5.8 5.7 5.7 4.8 4.7 4.8 3.7 4.4 5.6 6.2 6.1 6.1 6.3 6.4 6.4 6.3 6.2 6.3 6.2 6.1 6.0 6.0 5.9 5.9 5.9 6.0 6.1 6.1 6.0 5.8 5.6 5.7 5.7 5.6 5.6 5.6
5.5 5.6 5.7 6.2 5.9 6.1 5.9 6.1 5.6 5.7 5.5 4.6 5.6 5.3 4.3 4.5 5.3 6.1 6.3 6.4 6.5 6.6 6.5 6.4 6.2 6.0 5.8 5.8 5.9 5.8 5.7 5.8 5.9 6.0 6.1 5.9 5.6 5.5 5.4 5.4 5.2 5.2 5.2 5.2
5.3 5.4 5.6 5.6 5.9 5.8 5.9 6.4 6.3 5.4 5.0 4.9 6.2 4.6 4.6 4.9 6.0 6.4 6.6 6.7 6.4 6.5 6.5 6.4 6.3 6.0 5.9 5.9 5.8 5.6 5.7 5.8 5.8 5.7 5.7 5.5 5.4 5.2 5.0 5.0 5.0 5.0 5.2 5.1
5.4 5.1 6.4 5.8 6.3 6.2 6.0 6.0 6.5 6.3 6.1 5.5 6.0 5.0 5.0 5.8 6.1 6.9 6.7 6.5 6.4 6.3 6.2 6.2 6.1 6.2 6.0 5.9 5.7 5.6 5.8 5.7 5.7 5.7 5.6 5.3 5.2 5.2 5.1 5.0 4.9 5.1 5.2 5.2
5.7 5.6 6.3 6.8 6.1 6.2 6.3 6.5 6.2 6.2 5.3 4.1 5.5 5.7 5.8 6.4 6.8 6.9 6.9 6.5 6.5 6.4 6.3 6.4 6.3 6.1 6.0 6.0 5.9 5.8 5.7 5.6 5.5 5.5 5.6 5.6 5.3 5.2 5.1 5.2 5.1 5.2 5.3 5.4
5.6 5.7 5.9 6.3 5.6 6.0 6.0 6.2 6.4 6.7 6.7 5.3 4.6 5.5 6.3 6.6 6.5 6.2 6.4 6.4 6.3 6.2 6.2 6.3 6.4 6.3 6.2 6.1 6.0 5.9 5.8 5.7 5.6 5.7 5.6 5.4 5.3 5.2 5.2 5.1 5.2 5.3 5.3 5.4
6.1 6.2 6.1 6.2 6.5 6.8 6.8 6.9 6.9 6.6 6.0 6.5 6.5 5.3 6.0 6.2 6.7 6.6 6.3 6.3 6.5 6.5 6.5 6.5 6.3 6.3 6.3 6.1 6.0 5.9 5.7 5.8 5.9 5.8 5.7 5.4 5.1 5.1 5.1 5.2 5.2 5.2 5.2 5.4
6.7 6.6 6.5 5.9 6.1 6.1 5.9 6.1 6.5 6.8 7.1 6.9 6.6 5.2 6.4 6.6 6.7 6.9 7.0 6.8 6.6 6.4 6.6 6.5 6.4 6.2 6.0 6.0 5.7 5.8 5.6 5.7 5.8 5.8 5.7 5.4 5.2 5.3 5.3 5.2 5.2 5.4 5.5 5.6
7.2 7.1 6.7 6.6 7.1 7.1 6.7 7.1 7.2 7.3 7.1 6.7 6.5 5.9 6.2 6.3 6.4 6.7 6.7 6.6 6.7 6.6 6.8 6.7 6.6 6.5 6.3 6.0 5.9 5.9 5.9 5.8 5.8 5.7 5.6 5.6 5.4 5.3 5.3 5.4 5.5 5.7 5.8 6.0
7.1 6.8 6.7 6.9 7.2 7.5 7.4 7.6 7.7 7.5 7.0 6.8 6.8 6.6 5.8 6.4 6.5 6.7 6.8 6.7 6.6 6.8 6.8 6.6 6.8 6.9 6.7 6.3 6.1 6.5 6.4 6.2 6.1 5.9 5.9 5.8 5.6 5.6 5.7 5.9 6.1 6.3 6.3 6.4
7.4 7.1 7.0 6.8 7.0 7.0 7.0 7.5 7.4 7.4 7.6 7.6 7.3 7.1 6.4 6.8 6.7 6.5 6.6 6.8 7.1 7.2 7.1 6.9 6.7 6.5 6.5 6.5 6.6 6.6 6.6 6.4 6.1 5.9 6.0 6.0 6.1 6.3 6.4 6.5 6.6 6.7 6.8 6.7
7.3 7.1 7.0 6.9 6.8 7.1 7.1 7.2 7.2 7.5 7.6 7.6 7.5 7.6 7.6 7.1 7.1 6.9 7.2 7.5 7.3 7.3 7.4 7.3 7.1 6.6 6.4 6.4 6.5 6.4 6.5 6.5 6.3 6.2 6.2 6.3 6.6 6.8 6.8 6.9 6.8 6.8 6.8 6.6
7.0 7.1 7.3 7.1 6.5 6.4 7.6 7.8 7.8 7.8 7.8 7.8 7.6 7.7 7.6 7.5 7.4 7.2 7.5 7.4 7.1 7.4 7.6 7.8 7.5 7.3 7.3 7.1 6.8 6.8 7.0 7.1 6.9 6.7 6.5 6.7 6.9 7.2 7.1 6.9 6.7 6.5 6.5 6.5
7.3 7.2 7.2 7.2 7.1 7.5 7.4 8.1 8.3 8.0 8.2 8.0 7.7 7.9 8.0 8.1 8.1 7.7 7.6 7.6 7.7 7.7 7.6 7.6 7.8 8.1 8.0 7.9 7.5 7.3 7.3 7.2 6.9 6.7 6.6 6.6 6.7 6.8 7.1 6.9 6.7 6.5 6.5 6.6
7.1 7.1 7.3 7.2 7.1 7.0 7.9 8.6 8.4 7.7 7.3 7.9 7.8 7.8 7.8 7.9 7.6 7.9 8.5 7.9 7.6 7.5 7.6 7.6 7.9 8.1 7.9 7.9 7.8 7.7 7.7 7.6 7.6 7.4 7.1 6.7 6.8 6.9 6.9 6.8 6.6 6.7 6.7 6.7
7.3 7.4 7.3 7.1 7.3 7.4 8.3 8.0 7.7 7.4 7.6 8.2 7.9 7.8 8.0 7.7 7.8 7.9 7.8 7.7 7.7 7.7 7.8 7.5 7.6 7.8 7.9 8.1 8.1 8.3 8.3 8.2 8.1 7.9 7.7 7.4 7.1 7.0 6.8 6.8 6.7 6.7 6.7 6.8
7.6 7.1 7.0 6.8 7.1 7.0 7.7 7.5 7.2 7.9 7.6 7.5 7.4 7.4 7.6 7.7 7.7 7.6 7.5 7.7 7.5 7.6 7.5 7.6 7.9 8.0 7.9 8.0 8.1 8.3 8.4 8.3 8.1 7.9 8.0 7.7 7.4 7.3 7.1 6.9 6.8 6.7 6.6 6.6
6.8 7.1 7.5 7.2 7.1 7.2 7.3 7.5 7.3 7.2 7.3 7.3 7.5 7.4 7.7 7.4 7.4 7.3 7.4 7.5 7.4 7.4 7.5 7.6 7.8 8.3 8.4 8.3 8.0 7.9 8.2 8.2 8.0 7.8 7.5 7.3 7.4 7.0 6.9 7.0 6.8 6.6 6.5 6.4
6.8 7.0 6.9 7.0 7.1 7.4 7.2 7.0 6.8 6.9 6.9 6.8 7.2 7.9 8.2 8.2 8.1 8.2 8.0 7.8 7.5 7.4 7.4 7.5 7.5 7.8 8.1 8.3 8.3 8.3 7.8 8.0 7.8 7.5 7.6 7.3 6.8 6.4 6.6 6.7 6.7 6.4 6.3 6.4
6.5 6.2 6.8 7.5 7.3 7.1 6.9 6.7 6.6 6.5 6.5 6.7 7.0 7.5 8.0 8.0 7.9 7.8 7.8 7.7 7.9 7.8 7.7 7.7 7.6 7.7 7.6 7.8 7.9 7.8 7.6 7.5 7.6 7.4 7.1 7.6 7.0 6.2 6.6 6.7 6.7 6.4 6.2 6.1
7.1 7.6 6.7 6.9 6.7 6.1 6.3 6.3 6.2 6.3 6.6 6.6 6.9 7.4 7.6 7.7 7.8 7.7 7.7 7.6 7.8 7.7 7.6 7.4 7.4 7.3 7.3 7.5 7.8 7.8 7.7 7.2 7.2 7.1 6.8 6.9 6.8 6.5 6.7 6.6 6.6 6.5 6.1 5.9
Wind_Speed
4 6 14 14 16 8 6 4 7 3 3 2 7 11 14 12 5 9 9 8 8 9 7 5 6 6 7 5 5 5 5 5 4 3 2 2 3 3 4 6 13 13 14 13
4 15 6 6 5 7 5 5 4 5 6 5 7 8 9 8 7 8 9 9 11 7 5 6 6 4 4 5 5 5 5 4 3 1 2 3 3 4 3 6 8 12 10 10
6 3 13 8 6 8 5 11 4 5 4 4 4 11 7 7 7 11 10 13 13 15 15 8 7 5 4 5 4 4 4 5 3 5 3 3 3 2 1 2 4 7 12 11
7 7 6 5 9 9 11 6 5 4 0 5 2 12 8 5 8 6 10 13 16 17 8 8 7 5 5 4 4 4 3 4 5 6 3 3 2 2 3 4 5 6 11 10
7 6 12 8 7 6 4 7 7 5 4 4 3 5 5 4 6 9 16 12 10 10 8 11 9 7 5 5 4 3 4 6 6 6 5 3 4 4 4 5 6 7 7 10
7 1 6 10 6 11 6 4 3 2 3 8 10 8 6 9 14 13 7 9 9 6 8 8 6 6 5 4 4 4 5 5 6 6 6 6 6 4 5 5 4 4 4 4
4 13 3 3 7 4 7 10 1 5 4 7 3 10 17 3 7 8 9 11 7 8 10 10 9 7 6 6 5 4 5 5 5 5 6 5 5 6 6 5 4 5 3 3
9 4 13 9 7 5 14 9 5 7 5 4 4 9 6 9 10 8 12 5 6 6 6 8 8 7 7 7 6 6 5 4 4 5 5 4 5 3 4 5 4 4 4 4
6 6 1 3 4 12 5 12 6 3 3 2 5 7 8 9 10 6 6 6 10 10 9 8 7 7 7 6 7 7 6 5 4 4 4 5 5 6 5 5 5 3 3 4
5 1 4 13 3 3 8 7 5 3 3 4 6 6 9 3 8 5 5 9 8 5 7 7 6 6 6 6 6 6 6 6 5 5 5 4 5 5 5 5 5 5 4 4
2 1 1 6 11 15 5 5 5 3 6 5 2 6 7 13 9 7 8 7 6 8 8 7 7 7 7 6 6 6 6 6 6 5 4 5 4 5 5 4 4 4 5 5
8 3 5 11 2 8 15 14 16 6 6 5 8 16 3 5 6 6 7 8 8 8 7 8 8 8 8 8 7 7 6 6 6 5 5 5 5 5 5 4 4 4 5 5
14 5 2 2 4 3 8 13 11 13 2 13 9 16 12 17 14 7 6 8 7 6 7 7 8 10 10 9 8 7 7 7 6 6 6 6 5 5 5 5 5 5 5 5
16 6 9 16 4 7 8 11 17 15 8 14 14 27 15 7 8 6 4 6 5 7 9 11 9 11 11 11 11 9 7 7 7 6 6 6 5 5 5 5 5 5 5 6
8 10 17 15 1 4 8 13 15 18 23 15 22 19 25 18 14 11 13 12 5 9 10 13 13 12 12 11 10 10 10 10 9 8 7 6 5 5 5 5 5 5 6 5
7 5 4 13 9 8 5 3 14 20 20 14 22 24 27 20 12 9 12 7 9 14 16 15 16 15 14 16 15 13 13 12 11 9 8 7 7 6 6 5 6 6 6 6
10 8 5 17 7 6 9 21 17 11 16 15 16 26 23 24 21 20 16 11 17 18 13 16 18 17 17 16 17 18 15 12 11 10 9 9 8 8 7 6 6 6 6 7
6 10 5 4 5 7 7 7 22 24 24 22 19 20 25 26 24 23 10 13 14 14 17 15 15 16 17 14 15 13 13 14 13 11 11 10 10 9 8 7 6 6 6 8
5 8 6 7 6 5 7 9 8 9 18 14 21 27 25 25 21 20 21 9 12 14 14 15 14 14 11 12 14 15 14 14 14 14 13 12 12 11 10 10 9 7 8 6
5 2 5 1 4 6 9 20 8 6 6 19 17 18 20 18 12 18 22 4 8 10 9 10 8 4 8 10 14 16 16 16 17 16 15 13 12 12 11 10 10 8 8 8
5 4 14 14 9 6 13 2 6 5 12 5 6 12 13 9 14 15 4 5 5 5 9 8 5 6 5 8 15 15 15 18 14 13 13 12 11 11 10 10 7 9 8 8
7 6 7 5 7 15 4 4 9 5 5 3 2 5 8 7 7 7 9 8 7 8 7 6 5 2 3 6 9 9 12 9 12 13 13 12 10 9 8 9 7 8 9 9
3 6 5 9 7 1 4 6 3 3 4 5 3 6 8 8 8 7 8 8 7 7 4 1 1 1 1 1 5 10 7 11 12 12 11 10 10 9 9 9 9 7 8 8
3 3 3 2 4 7 9 6 5 6 8 8 5 6 5 9 9 7 7 9 7 5 4 1 3 2 2 3 3 3 8 9 12 11 13 10 10 9 9 6 6 7 7 7
5 5 6 10 15 8 11 8 8 5 4 6 4 4 5 5 8 7 8 8 7 6 4 4 5 5 5 6 6 5 6 8 8 8 9 11 8 9 7 6 6 6 4 6
6 10 7 14 7 7 13 6 3 5 4 2 3 5 3 4 8 6 9 8 5 5 4 4 5 5 4 5 7 7 6 7 9 9 7 6 7 6 6 6 6 10 9 10
Wind_Direction
185 196 204 193 199 192 181 194 214 223 247 223 238 246 250 245 246 251 248 257 259 242 255 178 144 132 118 78 72 47 39 10 22 8 333 308 241 220 222 220 224 224 230 201
155 224 199 195 197 198 190 193 233 280 264 199 275 260 247 251 234 230 240 249 244 251 203 179 151 136 119 113 71 52 35 6 0 348 279 259 256 260 230 211 213 230 232 214
200 191 187 195 188 200 218 224 188 232 325 263 309 278 244 242 226 230 233 239 243 231 235 181 179 154 107 86 82 76 32 12 358 337 305 288 247 257 313 75 78 40 58 52
244 241 185 174 208 177 224 189 183 211 0 250 100 280 251 251 256 235 249 245 244 243 222 175 157 161 150 134 102 87 56 31 11 349 343 294 268 147 59 77 96 78 63 63
223 188 209 218 217 170 203 162 186 202 228 282 219 284 277 233 270 254 251 261 240 230 181 161 164 162 152 128 113 105 80 46 23 14 11 28 53 81 99 91 84 70 60 54
221 253 195 219 189 199 166 116 116 72 186 248 224 208 205 222 233 252 249 259 251 179 143 137 140 140 140 122 113 108 83 53 36 31 23 49 71 78 92 95 90 82 71 48
196 238 278 171 163 161 175 153 163 199 216 241 263 202 250 274 274 236 253 258 236 163 153 151 156 161 161 154 153 126 97 71 51 48 39 38 64 68 84 85 87 93 80 61
196 231 206 192 206 175 198 175 162 196 208 247 196 227 257 230 250 248 238 251 144 175 165 170 170 170 167 165 152 127 120 108 79 71 59 48 53 66 79 84 94 87 91 77
181 248 248 217 167 180 190 210 175 92 24 35 234 289 290 248 263 259 255 172 192 193 191 183 172 179 174 166 165 157 144 133 127 116 95 70 69 75 77 70 74 76 74 88
218 262 201 196 146 185 179 159 185 169 227 258 256 264 238 317 241 252 218 219 209 189 183 187 190 176 178 177 171 158 162 166 159 135 120 108 101 96 97 94 94 89 83 84
285 141 355 130 203 191 163 185 206 169 191 201 267 255 225 232 229 243 245 243 225 213 203 188 191 195 186 180 173 177 173 165 163 147 131 120 112 102 93 100 102 100 94 87
180 169 209 204 289 226 222 212 196 197 246 244 252 261 318 193 130 157 230 238 225 218 186 188 199 192 195 195 189 188 178 175 172 158 141 136 126 118 110 104 100 93 89 76
179 208 151 348 276 342 212 217 221 226 64 224 230 258 221 239 275 335 295 284 251 193 188 202 203 205 202 201 199 194 184 178 171 161 152 152 151 142 133 125 117 105 104 100
173 176 217 229 200 146 207 201 216 214 222 233 227 259 257 261 271 286 311 280 232 212 208 215 216 215 209 203 200 193 185 175 172 169 165 160 159 150 143 139 131 121 113 108
188 230 224 246 133 209 211 204 215 219 230 228 250 243 263 258 257 249 244 254 215 228 227 222 223 217 214 207 202 192 189 181 173 171 168 165 151 146 146 141 134 127 122 114
214 245 194 256 226 208 244 229 224 230 240 247 248 259 266 274 261 245 246 239 222 229 230 229 227 223 214 213 206 196 192 183 170 171 171 157 153 154 159 153 146 134 126 120
199 214 190 250 167 175 232 218 227 235 239 238 243 249 263 268 266 257 255 230 238 245 237 229 225 222 221 213 202 198 187 166 174 174 166 164 161 163 161 152 146 141 135 125
201 204 199 212 155 215 225 196 215 226 235 239 247 256 256 258 269 270 263 240 242 241 245 241 232 229 225 211 196 183 170 173 172 171 168 165 163 160 156 153 151 143 142 137
209 195 229 243 224 309 301 254 193 189 247 246 240 245 252 261 275 285 269 228 233 236 240 245 245 230 216 188 177 169 170 171 171 175 172 170 167 163 164 163 162 155 146 141
114 91 206 185 231 232 230 255 165 116 258 252 236 247 255 265 268 266 278 216 249 252 252 260 262 218 173 182 167 169 176 175 183 178 172 167 167 167 168 163 161 159 154 150
176 194 217 232 243 279 250 120 79 139 249 303 213 232 248 242 241 266 357 289 313 305 308 314 287 232 230 161 167 181 178 191 178 161 156 159 163 161 158 154 153 159 151 141
181 181 216 230 240 252 117 141 184 252 298 284 248 251 256 255 297 287 294 286 297 295 309 327 313 325 124 161 175 187 193 159 148 147 147 149 150 152 150 150 151 155 152 150
265 190 189 184 220 308 219 225 204 130 215 270 240 242 231 258 268 274 283 291 283 278 273 326 215 121 340 309 191 169 159 145 139 140 143 145 147 149 157 156 160 155 157 160
263 177 202 75 249 249 263 262 250 214 231 260 250 276 241 243 260 277 291 287 275 255 249 170 135 139 109 30 53 101 145 145 147 148 148 152 157 157 159 159 157 161 170 169
194 144 203 249 268 282 262 250 259 270 245 273 276 265 267 273 278 264 279 284 259 236 190 186 191 174 162 126 116 122 134 150 151 153 158 152 157 160 155 150 151 152 152 169
195 231 223 252 247 240 276 251 193 228 241 246 312 312 323 317 295 291 284 285 277 221 178 182 179 160 156 145 136 126 141 162 154 154 161 154 146 146 140 138 131 140 148 152